[[{"header":{"parameterUnit":"m.s-1","parameterCategory":1,"la1":30.2991,"la2":30.254,"lo1":-89.0895,"lo2":-89.0444,"dy":0.0017,"dx":0.0017,"nx":28,"ny":28,"refTime":"2023-07-26T21:00:00:Z","depth":0,"parameterNumber":2,"parameterNumberName":"U-component_of_WINDS"},"data":[0,0,0,0,0,0,0,0,0,0,0,0,0,0,0,0,0,0,0,0,0,0,0,0,0,0,0,0,0,0,0,0,0,0,0,0,0,0,0,0,0,0,0,0,0,0,0,0,0,0,0,0,0,0,0,0,0,0,-1.0724,-1.0723,0,-1.0588,-1.0586,-1.0585,-1.0512,-1.0511,-1.0511,-1.0511,-1.0369,-1.0366,-1.0362,0,0,0,0,0,0,0,0,0,0,0,0,0,-1.0921,-1.0918,-1.0724,-1.0722,-1.0721,-1.0588,-1.0586,-1.0584,-1.0512,-1.0511,-1.0511,-1.0511,-1.0371,-1.0366,-1.0362,0,0,0,0,0,0,0,0,0,0,0,0,0,-1.0815,-1.0917,-1.0724,-1.0668,-1.0662,-1.0588,-1.0586,-1.0584,-1.0512,-1.0511,-1.0511,-1.0511,-1.0372,-1.0367,-1.0361,-1.0332,0,0,-1.0345,-1.0342,0,0,0,0,0,0,0,0,-1.0822,-1.0808,-1.0678,-1.0672,-1.0665,-1.0566,-1.0604,-1.0499,-1.0512,-1.0569,-1.0511,-1.0511,-1.0435,-1.0424,-1.0399,-1.0326,-1.032,-1.0344,-1.0341,-1.0339,-1.0337,0,0,0,0,0,0,0,-1.0829,-1.0814,-1.067,-1.0677,-1.0668,-1.065,-1.0635,-1.0584,-1.0505,-1.0564,-1.0558,-1.0543,-1.0431,-1.0405,-1.0395,-1.0317,-1.0344,-1.034,-1.0336,-1.0334,-1.0215,-1.0215,0,0,0,0,0,0,-1.0845,-1.082,-1.0674,-1.0666,-1.0744,-1.0647,-1.063,-1.0598,-1.0505,-1.0491,-1.0543,-1.054,-1.0414,-1.0402,-1.039,-1.0351,-1.0339,-1.0334,-1.033,-1.0215,-1.0215,-1.0216,0,0,0,0,0,0,-1.085,-1.0833,-1.068,-1.0742,-1.0721,-1.0644,-1.0609,-1.0596,-1.0569,-1.049,-1.0475,-1.0531,-1.0413,-1.0398,-1.0348,-1.0345,-1.0331,-1.0326,-1.0215,-1.0215,-1.0215,-1.0272,0,0,0,0,0,0,-1.0856,-1.0835,-1.0823,-1.0742,-1.0718,-1.064,-1.0609,-1.0593,-1.056,-1.0555,-1.0474,-1.046,-1.0412,-1.0356,-1.0342,-1.0337,-1.0322,-1.0215,-1.0215,-1.0215,-1.027,-1.0274,-1.0278,0,0,0,0,0,-1.0863,-1.0843,-1.0823,-1.0806,-1.0701,-1.064,-1.0626,-1.0571,-1.056,-1.0547,-1.0497,-1.0463,-1.0348,-1.0352,-1.0336,-1.0329,-1.0215,-1.0215,-1.0215,-1.0268,-1.0273,-1.0278,0,0,0,0,0,0,-1.0925,-1.0832,-1.0808,-1.0761,-1.0709,-1.0628,-1.061,-1.0578,-1.0528,-1.0524,-1.0458,-1.0441,-1.0397,-1.0358,-1.0364,-1.0297,-1.0278,-1.0275,-1.0324,-1.0328,-1.0332,-1.0342,-1.0317,0,0,0,0,0,-1.0933,-1.0892,-1.0812,-1.0779,-1.0754,-1.0687,-1.0658,-1.0621,-1.0564,-1.0542,-1.0487,-1.0433,-1.0385,-1.0354,-1.0305,-1.0265,-1.0247,-1.0252,-1.0256,-1.0259,-1.0257,-1.0234,-1.0236,-1.0216,-1.0216,-1.0216,0,0,-1.0949,-1.0894,-1.0871,-1.079,-1.0745,-1.0704,-1.0669,-1.0626,-1.0595,-1.0535,-1.0485,-1.0444,-1.0379,-1.0334,-1.0311,-1.03,-1.0259,-1.026,-1.0263,-1.0259,-1.0235,-1.0237,-1.0239,-1.0217,-1.0216,-1.0216,0,0,-1.0958,-1.0912,-1.0879,-1.0836,-1.077,-1.0725,-1.0718,-1.0642,-1.0613,-1.0562,-1.0517,-1.0479,-1.0397,-1.0353,-1.032,-1.0316,-1.0283,-1.0302,-1.0321,-1.03,-1.0302,-1.0303,-1.0302,-1.0302,-1.0301,-1.0301,-1.0301,0,-1.0986,-1.0922,-1.0867,-1.0827,-1.0793,-1.0739,-1.0707,-1.0667,-1.0588,-1.0566,-1.0555,-1.0452,-1.0405,-1.035,-1.0349,-1.0324,-1.0314,-1.031,-1.0306,-1.0307,-1.0307,-1.0305,-1.0305,-1.0303,-1.0303,-1.0303,-1.0303,0,-1.0961,-1.0918,-1.09,-1.0827,-1.0791,-1.0755,-1.0694,-1.0665,-1.0632,-1.0589,-1.0539,-1.0481,-1.042,-1.0405,-1.0371,-1.0346,-1.0341,-1.0319,-1.0298,-1.0312,-1.031,-1.0309,-1.0307,-1.0306,-1.0306,-1.0305,0,0,-1.1002,-1.0901,-1.0895,-1.0862,-1.0786,-1.0752,-1.0714,-1.0656,-1.0633,-1.0581,-1.0548,-1.0482,-1.0462,-1.0425,-1.0386,-1.0368,-1.037,-1.0348,-1.0345,-1.0354,-1.0339,-1.0356,-1.0357,-1.0348,-1.0348,-1.0348,-1.0345,0,-1.1,-1.093,-1.088,-1.083,-1.079,-1.074,-1.0708,-1.0658,-1.0618,-1.0579,-1.0534,-1.0489,-1.0465,-1.0443,-1.0422,-1.0374,-1.0366,-1.0373,-1.0317,-1.0316,-1.0335,-1.0355,-1.0372,-1.0372,-1.0344,-1.0343,-1.0343,0,-1.0987,-1.0939,-1.0885,-1.0816,-1.0797,-1.0769,-1.0713,-1.0676,-1.062,-1.0592,-1.0553,-1.0514,-1.0473,-1.0458,-1.0401,-1.0407,-1.0382,-1.0355,-1.0354,-1.0346,-1.033,-1.0348,-1.0371,-1.0371,-1.0341,-1.0341,-1.0341,0,-1.1023,-1.0945,-1.0903,-1.0876,-1.0794,-1.0776,-1.0741,-1.0684,-1.0653,-1.0605,-1.0584,-1.0531,-1.0502,-1.0462,-1.0411,-1.0404,-1.036,-1.034,-1.0336,-1.0337,-1.0327,-1.0329,-1.0347,-1.0312,-1.0312,-1.0312,-1.0312,0,-1.1026,-1.0995,-1.0918,-1.0892,-1.0857,-1.0801,-1.0767,-1.0728,-1.0679,-1.0645,-1.0598,-1.0568,-1.0502,-1.0463,-1.0423,-1.0383,-1.037,-1.0346,-1.0336,-1.035,-1.0353,-1.0332,-1.033,-1.0312,-1.0312,-1.0312,-1.0312,0,-1.1059,-1.1006,-1.0957,-1.0885,-1.0866,-1.0844,-1.0782,-1.0755,-1.0714,-1.0672,-1.0659,-1.0594,-1.0547,-1.0492,-1.0426,-1.0399,-1.0362,-1.0347,-1.0382,-1.0375,-1.0375,-1.0376,-1.0379,-1.0377,-1.0345,-1.0345,-1.0345,0,-1.1063,-1.1039,-1.0965,-1.094,-1.0906,-1.0866,-1.0835,-1.0779,-1.0749,-1.0685,-1.0666,-1.0616,-1.0572,-1.0499,-1.0446,-1.0396,-1.0379,-1.0384,-1.0371,-1.0387,-1.038,-1.0382,-1.0379,-1.0387,-1.0388,-1.0388,-1.0389,0,-1.1078,-1.1054,-1.1011,-1.096,-1.0925,-1.0882,-1.0837,-1.0819,-1.0754,-1.0723,-1.0675,-1.0641,-1.0576,-1.0526,-1.047,-1.0434,-1.0401,-1.0394,-1.039,-1.0404,-1.0426,-1.0415,-1.0391,-1.0393,-1.0393,-1.0393,-1.0392,-1.0392,-1.1096,-1.1073,-1.1018,-1.0973,-1.0934,-1.0894,-1.0866,-1.0823,-1.0782,-1.0724,-1.0694,-1.0647,-1.0594,-1.0515,-1.0481,-1.0444,-1.0432,-1.0427,-1.0425,-1.0425,-1.043,-1.0433,-1.0433,-1.0433,-1.0433,-1.0432,-1.0432,0,-1.1109,-1.1072,-1.1031,-1.097,-1.0935,-1.0909,-1.0858,-1.0831,-1.079,-1.0743,-1.0703,-1.0648,-1.0601,-1.0546,-1.0496,-1.0476,-1.046,-1.0465,-1.0465,-1.0458,-1.0442,-1.0451,-1.0479,-1.0479,-1.0479,-1.0479,-1.0479,-1.0479,-1.1111,-1.107,-1.104,-1.0981,-1.0944,-1.0898,-1.0872,-1.0835,-1.0798,-1.074,-1.0701,-1.0666,-1.0616,-1.0562,-1.0518,-1.0503,-1.0487,-1.0496,-1.0477,-1.0463,-1.0459,-1.0455,-1.0463,-1.0493,-1.0493,-1.0496,-1.0496,-1.0496]},{"header":{"parameterUnit":"m.s-1","parameterCategory":1,"la1":30.2991,"la2":30.254,"lo1":-89.0895,"lo2":-89.0444,"dy":0.0017,"dx":0.0017,"nx":28,"ny":28,"refTime":"2023-07-26T21:00:00:Z","depth":0,"parameterNumber":3,"parameterNumberName":"V-component_of_WINDS"},"data":[0,0,0,0,0,0,0,0,0,0,0,0,0,0,0,0,0,0,0,0,0,0,0,0,0,0,0,0,0,0,0,0,0,0,0,0,0,0,0,0,0,0,0,0,0,0,0,0,0,0,0,0,0,0,0,0,0,0,3.8617,3.8617,0,3.8616,3.8616,3.8616,3.8646,3.8647,3.8648,3.8649,3.8642,3.8641,3.864,0,0,0,0,0,0,0,0,0,0,0,0,0,3.8643,3.8642,3.8617,3.8617,3.8617,3.8616,3.8616,3.8616,3.8646,3.8647,3.8648,3.8649,3.8643,3.8641,3.864,0,0,0,0,0,0,0,0,0,0,0,0,0,3.8635,3.8642,3.8617,3.8632,3.8634,3.8616,3.8616,3.8616,3.8646,3.8647,3.8648,3.865,3.8643,3.8642,3.864,3.8606,0,0,3.8636,3.8635,0,0,0,0,0,0,0,0,3.8636,3.8634,3.863,3.8631,3.8633,3.8633,3.8622,3.8612,3.8646,3.8641,3.8649,3.865,3.8638,3.8637,3.8634,3.8606,3.8606,3.8636,3.8635,3.8634,3.8634,0,0,0,0,0,0,0,3.8636,3.8635,3.8617,3.863,3.8632,3.8638,3.8638,3.8621,3.8632,3.8642,3.8644,3.8643,3.8639,3.8635,3.8634,3.8606,3.8636,3.8634,3.8634,3.8633,3.855,3.8549,0,0,0,0,0,0,3.8635,3.8635,3.8617,3.8617,3.8638,3.8636,3.8637,3.8631,3.8633,3.8634,3.8642,3.8645,3.8637,3.8635,3.8634,3.8594,3.8634,3.8633,3.8632,3.8552,3.855,3.8549,0,0,0,0,0,0,3.8636,3.8633,3.8617,3.8626,3.8625,3.8635,3.8628,3.8631,3.8627,3.8633,3.8635,3.8637,3.8638,3.8636,3.8613,3.8594,3.8632,3.8631,3.8553,3.8551,3.8549,3.8515,0,0,0,0,0,0,3.8636,3.8633,3.8621,3.8626,3.8624,3.8598,3.8627,3.863,3.8625,3.8628,3.8628,3.863,3.8638,3.8615,3.8612,3.8593,3.863,3.8555,3.8552,3.855,3.8518,3.8512,3.8507,0,0,0,0,0,3.8637,3.8611,3.8621,3.8618,3.861,3.8596,3.8595,3.8607,3.8623,3.8611,3.8615,3.863,3.8597,3.8613,3.8609,3.859,3.8556,3.8553,3.855,3.852,3.8513,3.8507,0,0,0,0,0,0,3.8602,3.8612,3.8623,3.8597,3.8596,3.8602,3.8586,3.86,3.8592,3.8596,3.861,3.8609,3.8585,3.8585,3.8602,3.8557,3.8579,3.8575,3.8558,3.8551,3.8546,3.8546,3.8629,0,0,0,0,0,3.8592,3.8581,3.859,3.8566,3.8566,3.8576,3.8571,3.858,3.8579,3.8578,3.858,3.8577,3.8567,3.8559,3.8549,3.8518,3.8518,3.8503,3.8498,3.8493,3.8489,3.8473,3.8466,3.8539,3.8539,3.8539,0,0,3.8569,3.8573,3.8566,3.856,3.856,3.8548,3.8575,3.8561,3.8552,3.8575,3.8555,3.8557,3.8554,3.8527,3.8516,3.8527,3.847,3.8489,3.8486,3.8484,3.8469,3.8462,3.8456,3.8537,3.8537,3.8537,0,0,3.8523,3.8525,3.8506,3.8506,3.8507,3.8514,3.8509,3.8513,3.8516,3.8496,3.8513,3.8502,3.8483,3.8481,3.8477,3.843,3.8443,3.8427,3.8398,3.8382,3.8376,3.8371,3.8354,3.8348,3.8423,3.8423,3.8423,0,3.8494,3.8478,3.8494,3.8479,3.8476,3.8498,3.8479,3.8477,3.8474,3.847,3.8484,3.8461,3.8461,3.8434,3.8423,3.8419,3.8413,3.8426,3.8376,3.8371,3.8367,3.835,3.8344,3.8421,3.8421,3.8421,3.8421,0,3.8443,3.8432,3.8416,3.8415,3.8409,3.8392,3.8404,3.8397,3.8407,3.8412,3.8392,3.8393,3.8384,3.8378,3.8387,3.8352,3.8359,3.8374,3.8396,3.8357,3.8342,3.8336,3.8418,3.8419,3.8419,3.842,0,0,3.8373,3.8382,3.8376,3.8375,3.8378,3.8369,3.8352,3.8345,3.8338,3.8335,3.8321,3.8305,3.8319,3.8315,3.8324,3.831,3.8273,3.8326,3.8327,3.8316,3.8234,3.8222,3.8215,3.8282,3.8281,3.828,3.8234,0,3.8328,3.8302,3.8316,3.8287,3.8276,3.8298,3.8283,3.8283,3.8288,3.8278,3.8283,3.8272,3.8291,3.8289,3.8276,3.828,3.8256,3.8284,3.8267,3.8266,3.8267,3.8207,3.8195,3.8151,3.8228,3.8227,3.8226,0,3.8271,3.8268,3.8238,3.8244,3.824,3.8226,3.8221,3.8213,3.8212,3.8217,3.8212,3.8225,3.8208,3.8231,3.8208,3.8226,3.822,3.8221,3.822,3.8218,3.8243,3.8203,3.8138,3.8131,3.8217,3.8218,3.8219,0,3.8222,3.821,3.8191,3.819,3.8196,3.8186,3.8188,3.8189,3.8184,3.8179,3.8176,3.8168,3.8164,3.8157,3.8167,3.8183,3.8142,3.8166,3.8144,3.8144,3.8134,3.8134,3.8066,3.8131,3.8131,3.8131,3.8131,0,3.817,3.8151,3.817,3.8158,3.8137,3.8153,3.8131,3.8135,3.8136,3.8125,3.8143,3.8131,3.8145,3.8135,3.8142,3.8121,3.8119,3.8122,3.8124,3.812,3.8119,3.8115,3.8118,3.8129,3.813,3.813,3.813,0,3.8111,3.8124,3.8104,3.8112,3.8113,3.8098,3.8104,3.8092,3.8099,3.8084,3.8082,3.8092,3.808,3.809,3.8078,3.8084,3.8056,3.8062,3.8056,3.8058,3.8035,3.8037,3.7962,3.7952,3.8024,3.8023,3.8023,0,3.8077,3.8063,3.807,3.8064,3.8065,3.8056,3.8051,3.8066,3.8061,3.806,3.8048,3.8039,3.8032,3.8013,3.8018,3.8009,3.8015,3.799,3.8014,3.8011,3.8014,3.8015,3.8013,3.7984,3.7984,3.7983,3.7982,0,3.8014,3.8021,3.8014,3.801,3.8005,3.8002,3.8,3.7994,3.8009,3.8002,3.7992,3.7986,3.7976,3.7966,3.7959,3.7959,3.7973,3.7975,3.7969,3.7965,3.7961,3.7962,3.8042,3.7976,3.7977,3.7977,3.7978,3.7978,3.7966,3.7954,3.7958,3.795,3.7951,3.7949,3.7939,3.7945,3.7937,3.7931,3.794,3.7927,3.7927,3.792,3.7919,3.7908,3.7918,3.791,3.7908,3.7906,3.7902,3.7964,3.7907,3.7907,3.7907,3.7907,3.7907,0,3.7903,3.7907,3.79,3.7897,3.7891,3.7907,3.7906,3.7899,3.7888,3.7887,3.7881,3.7869,3.786,3.7865,3.7857,3.7847,3.7853,3.7844,3.7845,3.7844,3.7894,3.7899,3.784,3.784,3.784,3.784,3.784,3.784,3.787,3.7852,3.7859,3.7841,3.7845,3.7833,3.7831,3.7829,3.7829,3.7816,3.7809,3.7813,3.7815,3.7807,3.7799,3.78,3.7796,3.7785,3.7789,3.7834,3.7841,3.7847,3.7852,3.7784,3.7784,3.774,3.774,3.774]}]]